This demonstration page uses our WeatherBlox Daily Observations layout. Learn more.

Left ArrowRight Arrow

Hourly Observations for November 12, 2018

Temp ( °F °C ) Dew Point ( °F °C ) Humidity (%) Winds ( mph kmh ) Pressure ( in mb ) Visibility ( mi km ) Precip ( " mm )
12:57 am 00:57 Clear 23 -5 21 -6.1 92 92 NNE 8 13 30.49 1033 10 16 0.00 0.00
1:57 am 01:57 Clear 23 -5 20 -6.7 88 88 NNE 12 19 30.51 1033 10 16 0.00 0.00
2:57 am 02:57 Mostly Cloudy 22 -5.6 18 -7.8 85 85 N 16 26 30.51 1033 10 16 0.00 0.00
3:57 am 03:57 Partly Cloudy 21 -6.1 17 -8.3 85 85 N 12 19 30.52 1034 10 16 0.00 0.00
4:57 am 04:57 Cloudy 22 -5.6 17 -8.3 82 82 N 13 20 30.54 1034 10 16 0.00 0.00
5:22 am 05:22 Cloudy with Light Snow 21 -6 18 -8 86 86 N 14 22 30.62 1037 10 16 0.00 0.03
5:57 am 05:57 Cloudy with Light Snow 23 -5 18 -7.8 81 81 N 14 22 30.54 1034 9 14 0.00 0.03
6:57 am 06:57 Mostly Clear 19 -7.2 12 -11.1 74 74 NNW 17 28 30.60 1036 10 16 0.00 0.03
7:26 am 07:26 Mostly Cloudy 18 -8 12 -11 79 79 N 20 31 30.71 1040 10 16 0.00 0.00
7:57 am 07:57 Windy with Snow Likely 19 -7.2 12 -11.1 74 74 N 22 35 30.64 1038 9 14 0.00 0.03
8:57 am 08:57 Cloudy with Light Snow 19 -7.2 11 -11.7 71 71 N 18 30 30.68 1039 9 14 0.00 0.03
9:57 am 09:57 Cloudy with Light Snow 20 -6.7 11 -11.7 68 68 N 17 28 30.69 1039 9 14 0.00 0.03
10:57 am 10:57 Windy with Snow Likely 21 -6.1 13 -10.6 71 71 N 21 33 30.68 1039 9 14 0.00 0.03
11:57 am 11:57 Cloudy 22 -5.6 11 -11.7 63 63 N 24 39 30.66 1038 9 14 0.00 0.03
12:57 pm 12:57 Mostly Cloudy 24 -4.4 12 -11.1 60 60 N 17 28 30.62 1037 10 16 0.00 0.03
1:22 pm 13:22 Partly Cloudy 25 -4 10 -12 54 54 N 15 24 30.68 1039 10 16 0.00 0.00
1:57 pm 13:57 Mostly Sunny 25 -3.9 12 -11.1 58 58 N 18 30 30.58 1036 10 16 0.00 0.00
3:57 pm 15:57 Sunny 26 -3.3 12 -11.1 55 55 N 16 26 30.59 1036 10 16 0.00 0.00
4:57 pm 16:57 Sunny 24 -4.4 12 -11.1 60 60 N 13 20 30.60 1036 10 16 0.00 0.00
5:57 pm 17:57 Clear 21 -6.1 11 -11.7 65 65 N 7 11 30.60 1036 10 16 0.00 0.00
6:57 pm 18:57 Clear 19 -7.2 11 -11.7 71 71 NNW 6 9 30.60 1036 10 16 0.00 0.00
7:57 pm 19:57 Clear 17 -8.3 10 -12.2 74 74 Calm 30.62 1037 10 16 0.00 0.00
8:57 pm 20:57 Clear 16 -8.9 10 -12.2 77 77 WNW 3 6 30.62 1037 10 16 0.00 0.00
9:57 pm 21:57 Clear 15 -9.4 10 -12.2 80 80 Calm 30.63 1037 10 16 0.00 0.00
10:57 pm 22:57 Clear 15 -9.4 10 -12.2 80 80 SW 5 7 30.62 1037 10 16 0.00 0.00
11:57 pm 23:57 Clear 16 -8.9 11 -11.7 80 80 WSW 5 7 30.61 1037 10 16 0.00 0.00

Powered by AerisWeather